Theta_e
349 349 346 338 336 337 335 336 335 334 332 330 326 322 325 330 334 334 336 335 335 335 335 333 333 332 332 331 331 330 329 329 327 323 321 321 323 324 328 331 330 327 327 328 323 317 319 321 320 320 318 317 315 313 311 311 311 313 314 315 315 314 314 312 310 314 321 321 317 315 311 310 310 310 310 312 312 317 324 326 322 310 311 312 310
350 348 345 338 337 336 336 337 335 335 332 330 325 322 325 330 333 334 335 335 334 334 334 334 333 332 332 332 331 331 329 327 324 323 322 321 323 323 324 325 323 321 321 322 322 316 314 317 318 318 317 317 315 312 311 311 311 312 313 314 315 314 314 314 311 310 312 311 310 309 308 309 309 310 310 311 312 313 317 319 316 309 307 308 314
350 347 343 337 337 337 337 337 336 335 332 330 325 322 326 330 332 333 334 334 335 334 334 334 332 331 332 332 331 330 326 322 322 324 324 324 325 325 324 322 320 319 319 319 319 316 313 313 316 318 317 318 315 312 311 310 311 312 312 313 316 314 313 313 313 311 310 309 309 309 310 311 309 310 310 310 311 312 315 314 309 306 308 312 319
349 347 342 338 337 337 337 336 336 335 333 331 326 324 325 329 331 332 334 333 334 334 334 332 329 330 332 331 328 325 321 320 323 325 326 327 327 325 324 322 320 319 318 318 318 316 315 312 313 316 318 318 315 312 310 310 311 312 312 312 313 313 312 312 312 312 311 311 315 321 323 320 312 308 309 310 311 312 315 316 309 306 308 313 320
349 347 342 338 337 337 337 336 336 335 334 332 329 326 324 327 329 331 332 333 333 332 331 327 326 328 328 326 323 320 320 322 324 325 326 326 325 323 321 319 319 318 318 318 317 316 317 315 311 315 318 318 315 311 310 310 311 311 311 311 312 312 312 311 312 312 312 314 324 332 330 325 317 309 309 309 310 311 314 317 312 306 308 313 319
349 347 341 337 337 337 337 336 336 336 335 333 331 328 326 325 326 327 328 328 328 326 325 324 324 324 324 323 323 324 325 326 327 327 327 325 323 321 319 317 317 316 316 317 317 316 317 317 313 313 316 318 315 311 310 310 311 311 311 311 312 311 312 312 311 313 314 318 328 334 332 327 322 313 309 309 309 311 312 317 317 309 308 315 318
349 346 341 338 337 337 337 337 335 336 335 334 333 331 329 327 325 324 323 323 322 322 323 324 326 326 327 328 328 328 328 328 329 329 328 327 326 325 323 320 318 316 315 316 316 316 316 317 315 313 315 317 315 313 310 309 311 311 311 311 311 311 312 311 311 313 319 328 332 334 333 329 322 312 308 310 309 310 311 314 317 312 307 313 317
348 346 341 338 338 337 337 337 336 336 335 335 334 332 331 329 328 325 323 322 323 324 326 328 329 330 330 330 330 330 329 329 329 330 331 332 332 333 331 327 323 318 316 316 316 316 315 316 315 314 314 317 316 313 311 310 312 311 312 312 311 312 311 311 313 313 321 332 334 333 333 331 321 310 309 310 309 310 311 314 314 312 308 309 314
348 347 343 339 339 338 336 336 336 336 336 336 335 334 333 331 330 328 327 326 326 327 328 330 330 330 329 330 329 330 330 330 331 332 333 335 336 336 335 332 329 324 319 318 318 316 315 314 315 315 313 315 315 314 312 312 312 312 313 312 313 312 312 312 310 315 326 332 334 335 334 332 323 310 309 309 309 309 310 316 316 312 309 308 310
348 348 345 341 340 337 337 336 336 336 336 336 336 335 334 332 331 330 329 328 328 328 329 330 329 330 329 329 329 329 330 331 331 331 333 334 335 336 336 335 332 330 326 324 322 319 318 315 314 314 314 315 315 314 312 312 312 313 313 313 314 312 313 311 311 321 330 332 331 329 327 331 326 311 310 309 309 310 309 313 314 312 310 309 308
348 348 346 343 340 338 337 337 336 336 336 337 337 336 335 333 332 331 330 330 330 330 330 330 330 330 330 330 329 330 330 331 331 331 332 333 335 335 336 335 333 331 330 328 326 323 321 318 316 313 314 315 314 315 312 312 312 312 313 313 313 313 313 310 317 326 330 332 325 321 323 326 322 310 309 309 309 309 309 310 311 312 311 310 309
349 348 347 344 340 338 337 337 337 336 336 336 337 337 336 334 332 331 331 331 331 331 331 331 331 330 330 330 330 330 330 331 331 331 332 332 333 335 335 334 333 331 330 329 328 327 325 323 320 315 314 315 314 313 313 312 311 313 313 314 314 314 314 310 321 328 330 328 321 324 329 325 317 311 310 309 309 309 309 310 310 311 311 311 310
349 348 346 345 340 338 337 337 337 336 336 336 337 337 337 335 333 332 332 332 332 333 332 332 331 331 330 330 330 330 330 330 330 331 331 332 333 334 334 333 332 331 331 330 329 329 328 327 325 319 314 315 315 313 313 312 311 314 314 316 316 315 316 313 323 329 327 322 320 325 325 320 314 311 312 309 310 309 309 310 309 310 310 311 311
348 347 346 344 340 337 338 338 337 336 335 336 337 337 337 335 333 333 333 334 334 334 334 333 331 330 329 329 328 328 328 328 329 329 330 332 332 332 332 333 332 332 332 331 331 331 330 327 327 324 318 315 316 315 313 312 313 314 315 318 317 318 318 316 323 328 325 319 323 327 322 315 312 311 313 311 311 310 309 309 308 309 310 310 311
347 346 345 344 340 338 338 337 336 335 335 336 336 337 337 335 334 334 335 336 335 335 333 332 331 329 328 327 326 326 326 326 327 328 329 330 331 331 331 332 332 332 331 331 331 331 330 328 328 328 323 317 316 318 316 315 315 316 318 319 320 320 319 323 328 327 325 321 322 330 327 313 309 313 312 312 313 311 308 308 308 309 309 309 310
346 346 343 343 340 338 338 336 334 335 335 336 336 337 337 336 336 335 335 335 334 333 332 331 329 327 326 326 326 327 326 326 328 329 329 329 330 330 330 332 332 332 332 330 329 328 329 330 328 326 324 320 317 319 321 321 320 321 323 322 322 321 318 327 331 328 327 326 324 330 328 312 308 313 310 312 313 312 310 308 308 309 309 309 309
346 346 343 341 340 338 337 336 333 335 336 336 336 336 335 336 336 335 334 332 332 331 330 328 326 325 326 327 329 328 326 326 327 328 328 328 329 330 331 332 331 331 331 327 324 324 325 324 323 322 323 323 320 320 322 323 324 326 326 324 323 322 321 323 329 331 327 326 325 330 330 314 308 311 309 312 313 312 311 308 308 308 309 309 308
346 345 342 341 341 338 337 336 334 334 336 336 335 335 336 336 335 333 333 331 331 330 327 325 324 325 328 329 330 328 327 327 326 325 325 326 326 327 329 330 329 329 327 324 323 324 322 319 317 318 321 323 322 321 323 323 325 326 326 326 324 324 321 320 329 330 323 324 327 331 329 314 307 310 309 312 313 313 311 309 309 308 308 308 308
345 345 342 341 342 340 338 337 335 335 335 335 334 334 336 334 332 332 332 330 329 328 324 324 325 327 329 331 331 329 328 327 325 323 323 323 324 325 325 325 326 326 326 325 325 323 323 322 318 316 316 321 323 322 324 325 325 326 326 326 325 324 322 325 331 330 327 329 331 331 324 311 307 309 308 311 313 313 313 311 308 308 308 308 309
345 343 341 340 340 340 339 337 335 335 335 335 334 335 335 330 329 330 330 328 328 327 324 325 327 329 331 332 332 330 329 328 326 325 324 323 324 324 323 321 322 324 325 325 323 321 322 322 320 318 315 318 322 323 324 326 327 327 327 327 325 324 326 330 331 331 332 328 331 330 321 313 312 311 310 312 314 314 314 313 310 308 308 308 308
343 342 341 340 339 338 339 338 337 336 335 334 332 332 332 329 329 331 331 330 328 327 324 326 328 330 332 332 332 332 330 328 328 326 325 325 325 324 323 322 321 321 322 321 320 320 321 321 321 320 317 316 319 322 323 325 327 327 328 326 325 327 328 329 329 331 332 328 331 327 316 315 316 317 315 312 316 317 314 314 312 309 307 308 308
341 341 341 339 339 338 338 338 336 335 335 334 331 329 330 331 332 332 333 330 328 327 325 326 329 330 331 331 332 333 332 332 331 329 328 327 326 325 324 323 321 320 319 319 318 319 320 321 321 321 318 316 319 324 325 324 327 327 328 326 326 330 329 324 327 332 331 330 330 320 311 315 318 324 321 313 314 317 317 315 315 314 309 307 308
341 341 340 337 338 338 337 337 336 335 335 334 332 330 331 333 333 332 331 329 328 327 326 327 330 330 330 330 332 333 335 335 331 330 329 328 326 325 325 323 322 320 319 319 318 318 319 320 321 321 319 318 322 326 328 328 329 327 325 327 330 330 327 322 327 332 329 330 328 315 310 313 318 326 325 317 312 314 318 319 321 322 314 307 308
341 340 339 337 337 335 334 335 334 334 334 333 332 329 330 333 332 330 329 328 328 328 327 328 329 330 331 331 331 332 335 335 330 329 329 329 327 326 326 325 324 322 321 322 322 319 320 322 323 323 324 325 327 327 328 330 330 329 327 330 331 329 326 324 327 331 329 329 325 313 310 312 316 326 326 321 316 312 314 320 323 322 316 309 307
339 338 337 336 334 333 332 332 332 331 331 331 329 327 330 332 330 329 329 328 328 329 328 329 330 331 332 333 333 333 335 334 332 331 331 332 331 329 327 327 327 325 324 328 327 324 323 325 326 327 327 328 328 326 327 329 329 330 330 331 330 328 327 327 328 330 329 328 321 310 310 311 315 323 325 323 320 317 312 318 325 321 314 309 308
338 337 335 334 333 332 331 331 330 329 329 329 327 328 331 332 330 329 329 329 329 330 330 330 332 331 332 335 335 334 334 334 333 334 333 333 333 331 330 330 331 328 327 331 329 326 327 326 326 328 328 328 327 324 324 327 328 329 330 330 329 328 329 329 329 329 327 325 317 310 311 310 315 323 326 325 323 321 317 318 323 320 313 309 309
337 336 335 333 332 332 330 330 330 329 329 328 328 330 332 332 331 330 330 331 331 331 331 330 331 330 331 333 335 334 334 335 334 334 333 332 332 332 332 331 332 331 329 330 329 326 327 326 325 326 326 326 326 325 323 324 327 329 330 330 330 329 330 331 330 329 326 322 317 312 310 310 316 323 326 327 326 324 322 320 320 318 312 310 310
336 335 335 333 331 331 331 329 329 331 330 329 330 331 331 331 331 331 331 332 331 331 332 330 330 330 330 332 334 335 335 334 333 333 332 332 332 332 333 331 332 333 328 329 330 327 326 326 325 325 326 327 326 326 326 325 327 330 330 330 330 331 332 332 331 329 326 322 318 313 310 311 315 323 326 327 326 325 325 324 321 318 313 310 310
335 335 335 333 330 331 331 329 328 330 330 329 330 330 330 330 330 330 330 331 331 330 331 332 331 330 331 332 333 333 332 332 330 331 330 332 333 333 333 333 333 331 327 327 329 327 326 326 326 326 327 327 327 327 326 326 327 330 331 331 331 331 332 331 330 329 327 323 321 316 311 312 314 319 323 324 323 322 324 326 325 320 314 310 308
335 335 335 333 330 328 328 327 326 328 329 329 330 330 330 329 328 329 330 329 329 328 329 331 330 330 332 333 332 330 330 331 329 329 329 331 333 332 332 333 332 329 327 328 327 326 326 326 327 328 328 328 329 327 326 326 328 329 330 331 331 331 331 331 331 330 330 326 325 322 316 315 316 317 319 321 322 320 318 321 323 319 312 309 307
336 335 334 332 330 326 325 325 325 328 330 330 330 329 329 330 330 330 330 328 326 327 329 331 331 331 332 331 331 331 331 332 332 331 332 332 332 332 332 333 333 330 330 329 326 325 326 326 328 328 328 328 327 327 326 327 329 329 329 330 330 330 329 330 330 330 330 328 327 327 323 318 318 319 320 320 322 320 316 315 317 315 312 310 310
335 334 333 331 329 325 322 323 326 328 330 330 329 329 330 331 331 329 327 325 325 328 331 332 331 331 331 331 332 333 332 332 333 333 333 331 331 332 331 332 333 331 331 329 327 327 327 326 327 327 326 325 324 325 327 328 329 330 329 329 328 329 328 327 327 327 328 329 328 328 326 323 321 321 322 323 322 321 320 319 316 315 315 315 315
335 334 332 330 328 325 322 325 327 329 330 330 331 331 331 332 330 327 325 327 330 332 332 332 332 331 332 332 332 333 332 332 332 332 332 330 328 328 330 331 330 329 328 328 329 328 327 325 324 325 325 325 326 326 327 328 329 330 330 330 329 330 330 328 329 328 326 327 328 328 326 327 326 324 324 324 324 323 323 323 322 320 319 319 320
335 334 332 329 327 326 326 329 329 330 331 331 332 332 332 332 332 332 331 332 334 332 332 332 332 332 332 332 332 332 332 331 331 331 330 329 326 326 329 331 328 326 327 327 328 328 326 325 324 325 327 328 329 329 329 330 329 330 331 331 330 329 330 330 330 330 328 326 326 327 327 326 327 326 326 325 325 325 325 325 326 325 325 323 324
335 333 331 330 328 328 330 331 331 332 332 332 333 333 333 333 333 334 333 333 333 333 332 331 332 332 331 331 331 330 330 330 330 330 329 328 327 327 328 330 329 326 327 327 328 328 326 325 325 325 328 331 331 330 331 330 330 330 331 331 330 328 329 329 328 328 329 327 326 325 325 325 325 325 326 326 325 325 326 326 326 326 327 327 327
334 332 331 330 329 330 330 332 333 333 332 331 332 332 334 334 334 333 332 332 332 332 333 331 330 330 330 330 329 329 328 330 330 329 328 326 328 329 327 329 329 326 326 327 327 327 326 326 326 325 326 330 331 330 330 330 328 326 327 328 329 328 329 329 328 328 327 327 326 325 324 325 325 325 325 325 325 325 324 325 326 326 327 327 328
333 331 331 331 331 330 329 331 332 329 328 328 331 333 334 334 333 331 331 331 330 331 331 329 328 326 326 327 328 327 327 329 330 329 328 326 327 328 327 327 328 326 324 327 329 327 327 326 325 326 325 327 330 330 330 330 328 326 326 326 327 328 328 328 327 328 327 327 326 326 326 326 326 326 326 325 325 326 325 324 325 326 326 327 327
331 330 332 332 333 333 331 331 330 327 327 329 332 335 334 332 329 327 327 327 326 327 327 326 326 324 324 324 326 326 326 329 331 329 329 327 326 326 327 328 328 328 325 328 330 326 325 325 324 326 326 327 330 331 329 330 330 329 328 328 327 327 327 327 326 327 328 327 326 325 326 326 327 327 327 326 326 326 327 326 326 326 326 326 327
329 330 331 331 333 334 333 332 331 329 328 331 335 334 332 328 326 325 325 326 326 324 322 323 324 326 326 326 326 327 327 330 330 330 329 328 326 325 327 328 328 329 328 329 329 323 322 323 323 324 325 326 329 329 329 330 330 330 330 329 328 328 328 326 326 326 326 325 324 323 324 325 326 327 328 327 327 327 327 327 328 327 325 323 326
328 330 330 332 334 334 333 332 332 332 332 334 335 332 330 327 326 328 328 328 327 324 321 322 324 327 327 327 327 327 328 331 330 330 330 328 325 325 327 328 328 329 329 330 328 323 322 323 323 323 322 324 328 329 330 330 330 330 329 328 328 329 327 325 325 325 325 324 322 321 322 324 324 325 326 326 326 326 327 327 327 327 326 324 325
328 331 332 334 334 332 331 330 329 333 335 335 332 329 328 327 328 330 329 327 326 323 321 320 324 328 328 326 326 328 329 330 330 329 328 327 326 327 327 328 328 328 328 329 328 325 324 325 325 324 322 324 327 328 328 329 330 330 328 327 328 327 325 325 326 324 323 322 320 320 320 321 321 321 322 323 323 324 326 328 327 327 327 327 325
328 330 333 335 334 332 330 325 326 333 334 333 330 327 328 329 330 329 327 326 324 325 323 320 322 327 327 327 326 326 327 327 328 327 326 326 327 327 327 327 327 325 325 326 327 328 327 325 326 326 325 326 327 327 326 327 329 329 329 328 328 327 325 325 326 323 322 320 319 319 318 318 318 318 318 319 320 323 326 327 326 325 325 326 327
329 331 333 333 331 331 328 324 328 331 330 329 328 326 326 327 326 324 323 322 318 318 318 318 321 323 324 325 325 324 324 324 325 325 324 325 325 325 326 327 327 325 325 325 327 328 327 325 326 326 327 328 329 328 326 327 328 329 328 328 327 326 325 325 324 321 320 319 318 319 318 318 318 317 317 316 319 323 326 326 324 322 322 324 327
333 333 334 330 327 328 325 326 331 330 328 328 327 325 322 322 320 318 317 316 310 308 312 316 318 320 320 321 323 325 324 324 324 325 325 324 325 325 326 327 327 326 327 326 327 328 328 328 328 327 327 329 329 328 326 326 327 329 328 327 326 325 325 325 323 321 320 319 320 320 319 319 318 317 317 317 318 321 324 324 322 321 321 322 324
333 331 330 328 330 330 327 328 333 333 331 328 325 323 319 318 319 317 317 315 312 314 319 320 319 321 321 320 319 322 324 324 325 325 325 325 325 325 324 324 324 325 325 324 325 326 327 329 329 328 327 328 329 327 326 326 326 328 328 328 327 325 324 324 324 323 322 321 320 320 320 319 319 319 319 319 319 320 321 321 320 320 321 320 323
331 327 327 329 331 331 328 329 333 333 330 328 326 323 319 318 320 322 322 321 321 323 325 324 323 322 322 321 319 318 319 321 322 324 324 324 324 322 322 322 322 321 321 323 324 323 323 326 328 328 327 328 329 327 326 326 325 326 327 328 328 326 325 324 324 323 322 320 319 319 319 319 319 319 319 320 320 320 320 320 320 320 319 319 321
330 327 329 330 328 328 329 331 333 332 329 328 327 324 321 321 323 326 326 324 323 319 317 318 319 316 313 315 314 312 315 317 317 319 320 320 320 319 318 318 320 319 317 320 322 320 320 324 327 328 329 328 328 328 326 325 326 326 325 326 325 324 326 325 324 323 322 320 318 317 317 316 317 318 318 319 319 319 319 319 319 318 318 318 319
331 332 332 329 326 327 330 332 333 331 328 327 325 321 320 321 323 325 325 323 317 309 308 310 311 310 308 310 313 312 314 316 315 316 317 317 317 318 317 317 319 319 319 319 318 317 319 322 323 325 327 326 327 328 327 325 327 327 325 324 323 323 325 325 324 324 323 319 317 316 315 313 314 316 317 317 317 318 318 318 317 318 319 319 320
331 331 331 329 326 328 332 333 332 329 325 325 323 319 319 321 320 320 322 321 314 307 307 307 307 308 307 309 316 316 313 314 316 316 317 318 317 317 319 319 318 320 321 321 319 318 319 319 320 323 325 326 327 328 327 327 328 327 324 324 324 324 325 325 325 324 322 319 317 316 315 314 314 315 315 316 316 317 317 317 317 317 318 319 320
330 329 328 327 326 327 330 331 329 328 326 326 323 318 318 321 321 321 321 320 314 308 308 307 307 310 309 309 315 319 316 316 316 316 317 317 316 317 319 319 317 318 320 320 317 316 317 317 319 323 326 327 327 327 327 328 328 326 326 325 325 325 324 323 324 322 319 318 318 316 316 316 315 315 314 314 314 314 315 316 316 316 317 316 317
327 327 326 325 325 324 322 322 324 327 328 327 323 318 318 320 321 322 322 320 314 308 307 307 309 313 314 313 315 318 319 319 318 316 315 314 314 316 318 316 316 316 317 317 317 317 319 318 319 322 325 326 326 325 325 326 328 326 326 325 323 322 321 321 320 319 317 317 317 317 316 315 315 315 314 313 312 312 312 313 313 313 313 313 313
Wind_Speed
20 22 23 28 26 23 21 19 18 16 15 13 14 15 18 19 20 22 22 21 20 19 18 18 18 17 15 14 13 12 11 11 12 12 12 13 14 14 15 15 13 11 10 9 9 10 11 10 11 14 15 13 13 13 13 13 13 15 16 17 17 17 17 17 16 16 15 15 15 15 15 15 14 15 15 14 14 14 14 13 12 13 12 12 14
22 24 25 28 26 24 22 20 18 16 15 14 14 16 18 20 21 22 22 21 20 20 19 18 17 16 14 14 12 11 11 11 10 11 12 12 14 14 13 13 12 10 9 9 9 10 10 10 10 12 14 13 12 13 13 13 14 14 15 16 16 16 16 16 15 15 15 14 14 15 15 14 14 15 14 14 14 15 14 13 13 14 13 11 13
23 26 27 28 26 24 22 20 19 17 16 14 15 16 19 20 21 21 21 21 21 20 19 18 16 15 14 13 12 10 10 10 10 11 11 12 12 12 12 12 11 9 8 8 9 10 10 10 9 10 12 12 12 12 12 13 14 14 14 15 15 15 15 15 15 14 14 13 13 14 14 14 14 14 13 13 13 14 14 14 16 17 17 14 14
23 26 28 29 26 25 22 20 19 17 16 15 15 17 19 20 21 21 21 21 20 19 18 17 15 14 13 12 12 11 11 11 11 10 11 11 11 10 10 10 10 9 7 6 7 9 9 11 10 10 11 11 11 11 12 13 13 13 13 13 14 14 15 14 14 13 13 13 15 14 12 12 13 14 13 13 14 14 13 15 17 19 19 16 15
24 26 29 30 27 25 22 21 19 18 17 16 16 17 19 20 21 21 21 20 19 18 17 15 14 14 13 12 12 12 11 11 11 11 10 10 10 10 10 10 10 9 7 7 6 7 8 10 11 10 11 12 11 11 11 12 12 12 11 11 13 13 14 14 13 13 12 14 18 13 8 9 12 14 14 13 14 13 14 15 17 19 19 17 16
24 25 29 30 28 25 23 21 20 19 17 17 16 17 18 19 20 20 21 19 18 17 16 15 14 14 13 12 12 12 12 12 12 12 11 11 10 10 10 9 9 9 8 8 7 6 7 9 11 11 11 12 12 10 11 12 12 11 10 10 11 12 13 13 12 12 13 15 17 11 7 8 9 12 13 13 13 13 14 14 16 18 19 16 15
23 24 29 30 28 26 24 22 21 19 18 17 17 17 18 19 20 20 19 18 17 16 16 15 14 13 12 12 11 11 12 12 12 12 12 12 11 11 10 9 9 10 9 8 7 7 6 7 10 12 11 12 12 11 11 12 12 11 10 9 9 10 11 12 11 11 13 13 10 9 8 7 7 10 12 13 13 13 14 14 15 16 18 17 14
21 23 28 29 28 26 25 23 22 20 18 18 17 17 18 18 19 19 18 18 17 17 16 15 14 13 12 12 11 11 11 11 11 11 12 11 11 12 11 10 8 9 10 9 8 7 6 6 8 11 12 13 13 12 12 12 12 11 9 9 8 9 10 11 10 11 13 10 8 9 8 6 6 9 11 12 12 12 13 14 14 16 18 18 15
20 22 26 27 26 27 26 24 22 21 19 18 17 17 17 17 17 18 18 18 17 17 16 15 13 12 11 11 10 10 10 10 10 10 10 10 11 11 11 10 8 8 10 10 9 8 7 6 7 10 12 13 13 13 13 13 12 11 9 8 7 7 8 9 9 11 12 9 9 9 8 7 6 8 10 11 11 12 13 13 12 15 18 17 16
21 21 24 25 26 28 26 24 23 21 20 19 17 17 17 17 17 17 18 17 17 17 15 13 12 11 10 10 10 10 10 10 10 10 9 9 10 10 10 10 9 8 8 9 9 8 7 6 6 8 10 12 13 13 13 13 12 11 9 8 7 7 7 8 9 11 9 7 9 8 10 9 5 7 9 11 11 11 13 12 12 14 17 17 17
21 21 23 24 26 27 25 23 22 21 21 19 18 17 17 17 17 17 17 17 17 15 14 12 11 10 10 9 10 10 9 10 10 10 9 9 9 9 10 10 9 7 6 7 8 8 7 6 6 6 8 11 13 13 14 14 13 11 10 8 7 7 6 7 8 8 8 6 7 9 10 9 6 7 9 10 10 11 12 12 12 13 15 16 17
20 21 22 23 26 26 24 23 22 22 21 20 19 18 17 17 17 17 17 17 15 13 12 11 10 9 9 9 9 9 9 10 10 10 9 9 9 9 10 10 8 7 6 5 6 6 6 6 6 5 6 9 12 13 14 14 13 12 11 9 8 7 6 7 8 7 7 5 7 10 7 6 7 8 10 10 10 10 11 11 12 13 14 15 16
20 19 20 22 25 25 24 23 22 22 22 21 20 18 18 18 18 18 17 15 13 12 11 10 9 9 9 9 9 9 9 9 9 9 9 9 9 9 9 9 7 5 5 5 5 5 5 5 5 5 6 8 11 13 14 14 14 12 11 10 8 7 6 6 8 6 5 5 7 8 5 6 8 9 10 10 10 9 10 10 11 12 13 13 14
19 17 19 22 24 25 24 23 23 23 23 21 20 19 19 19 19 18 16 14 12 11 10 9 9 9 9 10 10 9 9 9 10 10 9 9 10 9 9 9 7 5 5 5 5 4 4 4 5 5 6 8 10 10 12 14 14 13 11 10 9 8 6 5 6 5 4 5 7 6 5 7 7 9 10 10 9 9 9 9 10 12 12 12 13
18 16 18 21 23 25 24 24 25 24 24 22 20 19 19 19 18 17 15 13 12 11 10 10 10 10 11 10 10 9 9 9 9 10 9 9 9 9 8 8 8 6 5 5 6 5 4 4 5 5 6 8 10 9 10 12 13 12 11 10 9 8 7 6 4 3 3 3 6 6 3 4 6 8 10 9 8 8 9 8 9 10 11 11 12
16 16 18 22 24 26 26 25 26 25 23 22 20 19 17 16 17 16 14 13 12 12 11 11 11 11 12 11 10 10 9 9 10 10 10 9 9 8 8 8 7 7 5 5 5 5 5 4 5 5 5 7 10 11 10 11 10 11 11 10 9 8 8 7 3 3 4 3 5 7 2 2 5 7 8 9 8 8 8 8 9 9 10 10 10
15 15 18 22 24 27 27 28 28 25 22 20 20 18 16 16 15 14 13 12 12 12 12 12 12 13 12 12 11 10 10 10 9 9 9 9 8 8 8 7 6 6 4 4 4 4 5 4 5 5 5 6 9 12 11 11 11 11 11 10 9 8 8 8 5 3 4 3 5 7 2 1 4 5 6 7 8 8 7 7 8 8 8 8 10
15 14 17 20 24 28 28 28 27 24 23 21 20 19 17 17 15 13 13 11 12 13 12 13 14 13 13 11 10 10 10 9 9 9 8 8 7 6 6 6 5 5 4 4 3 3 2 2 3 4 5 5 7 11 12 12 12 12 11 10 8 8 7 7 6 3 3 4 5 5 3 1 3 4 5 6 6 7 7 7 7 7 7 7 9
13 13 15 17 23 30 28 28 26 23 24 23 23 20 18 17 14 13 12 11 12 14 13 15 14 13 12 11 10 10 10 9 9 8 8 7 7 6 6 5 5 5 5 3 2 2 2 2 2 2 4 5 5 8 12 13 14 13 12 10 8 7 7 6 5 3 3 4 5 3 2 1 2 3 3 4 4 6 7 7 7 7 7 6 7
15 11 12 14 18 25 28 28 26 23 23 24 24 21 17 16 14 13 12 12 14 15 15 15 14 13 12 11 11 11 11 10 9 8 8 8 7 7 6 6 6 5 5 3 2 2 2 2 2 2 2 4 5 6 9 13 14 14 12 10 8 6 5 4 4 6 3 3 5 1 0 1 1 3 3 2 3 4 6 7 7 7 6 6 6
15 8 7 10 13 18 24 27 25 23 22 23 21 18 17 16 16 15 14 14 14 15 16 15 14 13 12 11 10 10 10 9 8 8 8 8 7 7 6 6 6 5 5 3 3 2 2 2 2 2 1 3 4 4 6 9 12 13 12 11 9 6 4 4 4 6 3 4 5 2 2 1 1 3 2 2 2 3 4 5 6 7 6 6 6
13 9 6 9 12 14 21 23 23 23 23 24 21 19 18 17 17 16 15 15 15 15 16 15 14 13 12 10 10 9 8 7 8 8 8 7 7 7 6 6 6 5 4 3 2 2 2 2 2 2 2 1 2 4 4 5 8 10 11 10 8 5 4 5 3 5 4 5 2 4 2 1 1 2 2 2 1 2 3 3 5 6 6 6 5
12 12 8 10 12 13 16 20 23 24 23 22 21 20 20 20 18 17 16 16 15 15 16 16 14 12 12 11 10 9 8 7 8 8 7 6 7 7 7 8 7 6 4 2 1 2 3 3 1 1 2 2 2 4 4 4 5 6 9 8 6 5 6 6 3 3 3 4 2 4 2 0 1 2 1 1 2 2 2 2 4 4 5 6 5
13 12 10 11 11 12 15 21 24 24 23 22 21 21 22 21 19 18 18 18 17 16 16 15 13 12 12 11 10 8 8 8 8 7 6 6 6 6 7 7 7 6 5 4 2 2 2 1 0 1 3 3 4 5 5 5 5 6 7 7 5 6 7 6 4 3 2 4 2 3 2 1 1 3 1 1 2 2 2 2 4 3 4 5 6
15 14 11 10 9 13 19 24 25 23 24 23 22 22 22 21 20 19 19 19 18 17 16 15 14 13 11 9 9 9 8 8 7 6 6 6 7 6 6 6 6 6 5 4 3 2 2 1 1 2 3 4 4 5 6 7 6 6 7 7 7 8 7 5 5 4 2 2 1 2 1 1 1 3 1 0 1 1 2 3 3 2 3 5 6
12 13 12 11 11 17 24 26 25 23 24 24 22 22 21 20 21 20 19 19 18 17 16 15 14 13 11 9 9 9 9 9 7 6 6 7 7 6 5 5 6 5 5 4 3 3 3 2 2 2 3 3 2 3 5 8 7 6 6 5 6 8 7 5 5 5 3 3 2 2 1 1 2 4 2 1 0 0 1 2 2 2 3 5 6
11 12 12 12 14 20 24 24 24 23 24 24 22 21 21 21 20 20 19 18 17 16 15 15 15 13 12 10 9 9 9 8 7 7 7 6 6 5 5 6 6 5 5 5 3 3 3 3 3 3 3 3 2 2 3 7 7 6 6 6 6 7 6 5 4 4 4 4 3 3 1 1 3 5 4 2 1 1 1 2 1 1 2 4 5
12 12 12 13 16 20 23 23 24 24 24 24 22 20 21 21 20 19 18 18 17 16 15 15 14 13 12 11 9 9 9 8 8 8 8 6 5 5 6 6 6 6 5 5 4 4 4 3 3 3 4 4 3 4 4 7 8 7 5 6 7 7 6 5 4 4 3 3 3 3 2 2 3 5 4 2 2 1 1 1 1 1 2 3 2
12 12 13 16 17 21 24 24 25 24 23 23 22 21 21 21 20 19 18 17 16 16 15 14 14 14 12 10 10 10 9 9 8 9 9 8 6 6 6 6 8 8 7 6 5 5 4 3 4 4 4 4 3 5 6 8 8 7 6 6 6 6 6 5 4 3 3 3 2 2 2 3 3 4 3 3 3 2 2 2 0 1 1 2 2
11 12 13 17 20 23 25 26 25 23 22 20 20 22 21 21 21 19 18 16 15 15 15 15 14 13 11 10 9 9 9 8 8 9 9 8 6 6 6 7 8 9 7 6 6 6 5 4 5 5 4 4 4 5 6 8 8 8 7 7 6 5 6 5 4 3 3 3 2 1 1 3 4 4 3 3 3 3 3 2 1 1 3 4 4
11 12 13 17 23 25 26 27 24 22 21 19 20 21 21 21 20 18 18 16 16 16 15 14 13 12 11 11 10 9 8 8 8 9 9 8 7 6 7 8 9 9 8 6 6 7 6 5 6 6 5 4 4 5 6 8 8 7 7 6 5 5 6 5 4 3 4 3 2 2 1 1 3 4 5 5 5 4 4 4 4 5 6 7 6
11 13 14 19 27 28 28 27 21 20 20 20 21 20 20 20 19 18 17 16 16 16 14 13 12 12 11 11 11 10 9 10 10 9 8 8 8 8 8 9 9 9 9 8 8 8 8 7 6 6 5 4 4 5 6 8 7 5 5 5 5 4 4 4 3 2 3 4 5 4 2 1 1 3 5 6 6 6 5 5 5 6 7 7 8
11 14 16 22 30 29 25 22 19 20 21 21 21 20 19 19 19 18 15 16 16 15 14 12 12 12 12 13 12 11 11 12 10 8 8 8 8 9 9 9 9 9 9 9 8 8 8 8 7 6 5 4 4 4 6 6 6 5 4 4 5 5 4 3 2 1 1 1 5 6 4 3 2 1 3 5 5 6 6 5 4 3 3 5 6
12 17 20 25 29 27 22 21 21 22 22 21 20 19 18 17 16 15 14 15 15 13 12 12 11 11 12 11 10 11 13 13 10 8 9 9 9 10 9 8 9 9 8 9 8 7 7 8 8 7 5 4 4 4 5 5 5 4 4 4 4 5 5 4 3 2 2 2 1 4 5 4 3 2 2 3 4 5 5 6 4 3 0 2 3
15 20 24 26 27 25 23 23 22 21 20 20 18 16 16 15 14 13 14 14 12 10 9 9 9 9 9 8 8 9 11 11 10 10 10 9 9 10 9 9 9 10 9 10 9 7 6 7 8 8 7 5 4 4 4 4 4 4 4 4 4 5 4 3 2 1 1 1 1 2 4 5 6 4 3 2 2 3 4 4 4 3 1 1 2
17 22 25 26 26 24 23 23 22 19 18 17 15 14 13 12 12 12 11 11 9 8 7 7 8 8 9 8 7 7 8 8 8 10 11 11 9 9 10 9 9 10 10 10 9 8 7 7 8 8 8 7 5 4 3 3 4 5 4 3 3 4 3 2 1 1 0 1 1 2 3 5 7 8 6 4 3 2 2 2 2 2 1 1 2
16 22 24 24 25 23 22 20 18 17 16 15 13 12 11 9 9 8 8 7 7 6 5 5 7 8 10 10 10 8 7 7 8 9 11 11 10 10 10 9 9 11 11 10 10 9 9 8 8 8 9 8 5 4 4 3 3 4 4 4 5 4 4 3 2 1 0 1 2 3 4 4 6 8 9 7 5 5 4 3 1 1 1 3 4
18 23 24 23 23 20 19 18 16 16 15 14 12 11 10 8 7 6 6 5 4 4 4 4 5 6 8 9 9 9 8 7 8 9 11 12 10 10 10 8 8 11 12 11 11 11 10 10 9 8 8 8 7 5 5 5 4 4 4 4 5 4 4 3 2 1 0 1 2 2 4 5 5 6 8 9 8 7 6 6 5 4 4 5 5
21 23 23 23 20 17 17 17 16 16 15 14 13 12 9 7 6 5 4 3 2 3 3 4 3 3 5 6 7 7 8 8 8 9 11 12 11 10 9 7 8 10 11 10 11 11 11 11 10 9 9 9 8 8 8 6 5 5 5 5 4 3 4 3 2 1 1 1 1 1 3 4 6 6 7 9 9 9 8 8 7 7 6 7 8
24 23 22 21 18 16 16 15 15 17 17 14 12 9 7 5 5 4 4 3 2 2 2 2 1 1 3 5 6 7 8 8 8 8 10 12 11 11 9 8 8 9 10 9 9 12 12 10 10 10 10 10 9 8 9 8 6 6 6 6 5 5 4 3 3 3 1 1 1 1 2 2 4 6 7 8 8 8 9 8 6 7 6 9 10
25 24 21 18 17 15 12 12 15 16 16 12 9 6 5 4 5 5 5 4 2 1 1 1 2 2 4 5 7 7 8 9 9 9 10 10 11 10 8 8 9 10 10 9 9 12 11 11 11 10 10 11 10 9 9 9 8 7 6 6 5 4 3 4 3 3 2 1 2 2 4 4 3 3 4 5 4 4 5 5 5 5 5 6 9
26 24 21 17 16 13 10 12 14 14 13 10 7 7 6 6 7 6 5 4 2 2 2 2 3 3 4 5 6 7 7 7 7 7 8 9 8 8 8 9 10 10 10 9 7 9 10 11 11 10 11 11 10 10 11 9 8 8 7 6 6 5 4 5 3 2 2 2 2 2 3 4 4 3 2 1 0 2 3 4 4 5 4 4 5
23 20 18 17 16 14 13 15 15 14 12 10 9 9 9 9 8 8 7 5 3 3 3 4 4 4 4 5 5 6 6 5 5 5 6 7 6 7 7 8 9 9 8 9 7 7 9 10 10 10 10 9 9 10 11 11 9 8 8 8 8 8 6 5 5 3 3 3 3 2 2 1 1 1 1 0 1 2 2 3 4 4 4 4 2
15 15 17 18 18 17 17 18 17 14 12 11 11 9 9 10 9 8 8 6 5 5 5 5 5 5 4 4 5 5 5 5 5 6 5 5 5 5 6 6 7 7 7 8 8 6 8 9 9 9 9 9 9 10 11 12 10 9 8 8 9 10 8 7 8 7 4 3 3 2 2 1 1 1 1 1 1 1 1 1 2 2 2 3 1
13 18 22 22 20 18 18 18 16 14 12 11 9 8 9 9 9 8 7 6 7 7 7 7 5 5 5 5 5 4 4 5 5 5 5 5 5 5 4 5 5 6 6 5 6 6 6 8 8 8 9 9 9 10 10 12 12 11 9 6 6 9 12 12 10 8 5 4 4 3 2 2 2 2 2 2 2 2 1 1 1 1 1 2 2
20 24 26 23 19 19 20 18 16 15 13 10 8 7 7 7 7 8 7 6 7 8 8 7 7 6 4 4 4 4 3 3 3 3 3 3 3 4 4 4 5 6 6 5 6 6 5 7 8 8 9 9 9 9 9 11 12 12 11 9 8 6 11 14 10 8 6 5 5 5 4 4 3 3 3 2 2 2 1 1 1 1 1 2 3
22 24 24 21 19 19 19 17 16 15 13 10 8 7 7 6 7 7 7 6 7 8 8 8 8 6 5 4 3 5 4 3 3 2 2 3 3 3 3 3 4 5 6 6 6 7 7 7 7 8 8 9 9 8 10 11 11 12 13 12 10 6 9 11 10 9 8 6 6 6 6 5 4 5 4 2 1 1 1 2 2 2 3 3 3
18 20 22 21 20 19 18 16 16 15 12 10 7 7 8 8 9 8 7 7 7 8 8 8 8 6 6 6 5 5 6 6 4 3 3 2 3 2 2 2 3 3 4 5 6 6 7 7 7 8 8 8 8 8 10 10 9 11 12 11 9 8 8 8 7 8 8 9 9 8 7 5 5 7 7 5 4 3 4 5 6 5 5 5 5
14 16 18 19 19 18 18 17 16 15 13 11 9 9 9 8 7 6 6 6 7 8 8 7 6 6 6 6 7 6 7 8 6 5 4 3 4 4 3 3 3 5 4 4 5 5 5 5 6 8 7 7 8 8 9 9 8 10 11 11 9 7 8 7 7 6 8 10 10 9 9 8 8 9 9 8 8 7 7 8 9 8 7 8 8
12 12 14 16 14 13 15 15 14 14 13 10 9 10 9 7 5 3 3 5 6 8 8 7 6 5 5 5 7 7 7 8 8 7 6 5 6 6 5 4 4 5 5 4 4 4 4 5 6 8 8 7 8 9 9 8 8 9 10 10 9 8 8 8 8 7 7 8 9 10 10 9 9 10 10 9 9 9 8 8 9 8 8 8 7
13 13 13 18 17 14 16 16 13 12 10 7 8 9 8 7 5 3 1 3 5 8 8 8 8 7 6 6 7 8 8 10 9 8 7 7 8 8 7 6 6 6 5 5 5 4 5 5 7 8 8 8 8 9 10 9 9 9 9 8 8 8 7 7 8 7 7 8 10 11 9 9 10 10 10 9 9 8 8 8 8 8 8 8 7
Wind_Direction
180 180 174 172 171 173 174 174 174 170 169 164 162 162 166 164 161 161 162 162 161 161 158 157 155 153 148 143 142 144 146 143 145 141 142 148 152 150 148 149 151 155 152 155 159 166 164 153 152 146 135 129 125 119 112 103 97 92 91 92 92 93 92 90 87 87 89 90 89 87 84 81 82 86 85 82 74 71 73 72 59 47 54 59 78
172 176 174 171 172 174 174 174 172 169 166 160 157 157 162 161 161 163 163 163 162 163 161 160 158 156 149 146 147 149 151 146 146 142 143 147 152 152 151 153 156 157 153 158 161 169 171 165 161 151 142 136 131 123 116 110 104 98 94 94 93 92 91 91 89 89 89 89 86 85 84 82 82 84 84 81 74 72 75 78 70 52 51 62 75
166 176 175 173 174 174 174 174 171 166 163 158 153 153 158 158 159 162 163 164 165 165 163 164 161 155 151 150 151 153 150 142 140 140 142 144 149 151 153 153 153 154 147 153 159 165 174 176 171 157 150 143 136 128 121 116 110 104 98 94 94 94 91 89 89 91 91 90 88 83 82 83 82 80 81 81 80 75 72 72 67 55 53 64 74
166 174 174 174 175 174 174 172 170 164 162 156 150 149 155 155 157 160 162 165 166 167 165 165 161 155 155 155 153 151 143 136 137 138 143 146 149 152 154 154 150 147 139 143 153 159 169 180 179 168 159 151 141 132 127 122 117 109 101 94 94 94 91 88 87 90 93 94 83 75 76 82 82 80 80 80 80 73 67 66 64 55 54 66 74
166 173 173 173 174 175 173 171 168 164 162 155 150 147 151 153 155 158 161 164 166 166 165 164 160 156 153 152 149 144 137 133 135 136 142 148 151 152 152 151 148 146 141 141 151 153 160 173 178 176 166 156 147 138 132 129 124 115 108 101 97 96 93 91 88 89 93 93 83 79 78 75 78 78 75 76 78 74 67 64 64 57 54 64 68
170 173 173 173 174 174 173 171 168 165 163 156 150 147 148 149 150 153 157 161 162 162 161 159 155 150 146 145 143 140 137 134 135 135 139 147 152 150 147 143 141 144 145 147 154 154 156 168 175 178 170 159 152 143 137 135 130 121 116 110 105 100 95 92 89 92 94 85 84 95 86 66 72 74 71 74 77 75 70 66 66 58 56 62 61
173 172 175 175 173 174 173 171 168 166 163 158 152 146 146 145 146 149 153 155 155 155 153 150 145 141 141 141 141 140 138 137 138 139 142 148 151 148 142 134 130 131 137 144 149 153 157 165 174 178 172 163 157 148 142 139 134 128 123 117 110 103 98 94 89 93 93 83 84 99 95 78 67 65 67 71 72 74 72 68 69 63 60 64 63
173 172 177 176 173 174 174 171 168 166 163 159 152 146 144 143 145 147 150 150 150 149 145 141 138 137 140 141 142 142 141 142 141 142 144 147 147 142 136 129 127 126 126 128 131 138 148 160 170 177 174 164 159 154 149 144 139 135 132 123 115 110 104 98 93 88 85 90 98 93 93 85 65 65 67 68 69 75 75 69 69 68 64 63 63
170 171 178 177 175 175 174 171 168 166 163 158 151 146 144 145 147 148 150 148 147 146 142 138 136 138 142 142 143 147 147 146 143 141 141 141 139 136 134 129 130 131 126 119 117 121 131 149 161 174 175 164 159 160 155 150 148 144 141 134 125 118 109 104 98 86 79 90 97 91 96 87 63 69 69 70 71 71 75 73 70 70 67 63 64
169 172 177 178 179 175 174 171 167 166 162 158 152 147 146 150 151 152 151 148 148 145 142 138 139 142 146 146 148 152 151 149 144 143 143 140 139 139 137 133 132 132 128 120 116 113 116 129 146 168 173 167 163 165 163 157 157 154 150 145 140 129 118 111 95 84 82 92 101 110 115 106 82 72 71 71 70 69 74 76 75 73 70 66 63
172 175 175 179 180 175 173 171 168 165 162 159 153 150 150 153 156 157 153 149 148 144 142 142 145 150 154 157 158 159 156 154 149 148 148 146 149 148 144 139 136 134 131 121 118 116 113 118 131 153 167 169 167 170 170 165 165 162 158 154 151 140 131 120 100 85 88 89 98 99 96 95 83 76 77 73 72 75 80 80 78 76 74 69 64
174 175 174 177 178 176 174 172 170 166 163 159 155 155 155 156 158 158 155 151 147 144 146 149 156 161 165 168 166 166 163 161 156 153 153 152 154 151 149 145 141 143 144 131 124 122 120 124 126 133 146 158 166 174 174 170 170 167 164 161 158 149 142 125 104 94 102 97 85 86 81 81 75 76 80 76 75 76 80 82 81 79 77 73 68
175 174 176 173 174 177 176 174 171 167 162 159 159 162 162 160 160 159 157 154 151 153 156 160 167 169 172 172 172 174 172 173 168 164 160 155 150 149 151 148 148 154 157 147 136 129 130 134 129 130 128 136 156 175 178 172 172 172 168 163 163 155 148 132 111 109 120 107 84 85 93 84 71 72 76 75 76 77 78 80 83 82 80 77 73
173 175 176 168 172 178 177 175 170 164 161 161 164 166 166 163 162 161 157 156 159 164 168 171 172 172 175 173 173 176 176 178 174 170 167 157 150 154 156 153 154 160 165 152 141 141 144 148 144 141 132 130 140 167 178 171 174 175 169 167 166 160 154 122 105 117 118 107 93 80 71 72 70 73 73 72 75 79 80 78 81 82 81 80 78
173 180 172 164 174 177 175 173 167 164 163 165 168 167 165 166 165 161 158 161 166 171 176 176 174 173 172 168 165 167 171 171 168 166 167 163 159 162 164 163 163 163 170 159 154 158 156 158 158 152 142 135 136 154 168 167 176 173 167 169 162 164 159 111 89 124 104 90 96 91 78 70 77 80 72 68 75 82 83 78 79 80 79 79 79
181 190 178 169 174 176 174 171 167 167 169 171 173 170 167 170 168 160 158 164 170 174 176 174 174 171 164 161 159 160 162 158 156 158 161 163 166 170 166 167 169 164 167 168 169 166 159 167 177 172 160 146 141 149 158 159 164 161 159 160 156 159 152 128 118 127 102 87 94 98 111 96 92 87 76 72 75 83 86 81 80 82 80 78 80
185 193 187 176 175 177 174 170 169 172 178 180 177 174 171 171 169 162 157 163 172 175 174 173 170 166 160 159 157 157 154 148 146 147 150 155 161 166 160 161 166 163 164 172 168 159 162 186 208 195 181 167 152 150 155 155 150 151 153 152 153 148 148 141 124 120 126 126 99 95 109 138 109 95 86 83 79 83 90 89 85 85 84 81 81
184 187 188 180 175 178 177 171 169 176 180 178 174 172 168 161 161 161 161 170 175 175 173 170 167 164 162 160 156 153 149 144 140 140 140 144 149 151 151 152 157 161 168 176 160 154 172 206 230 222 204 193 169 155 155 156 151 153 152 149 149 141 148 136 112 125 139 105 84 95 122 151 114 104 92 88 86 86 91 101 99 90 86 83 81
186 190 187 183 174 170 172 171 169 178 177 173 173 170 167 162 162 165 171 176 173 176 174 167 166 164 162 159 155 151 148 144 141 139 136 135 136 136 137 138 146 162 177 192 181 180 203 220 238 238 223 212 200 170 159 158 156 157 156 152 148 141 137 117 109 105 92 90 82 91 117 104 122 115 96 85 88 88 91 104 112 104 93 87 82
179 185 183 188 179 165 167 171 169 178 177 171 170 165 167 173 176 176 176 173 170 177 173 167 167 165 166 163 160 156 151 147 144 142 138 134 133 133 132 134 145 161 181 202 214 216 222 243 256 238 225 213 217 199 169 160 159 161 160 155 146 143 130 124 133 109 97 98 97 114 331 58 150 113 106 90 82 87 92 97 111 116 105 96 89
179 178 174 172 175 167 170 173 170 178 180 173 167 165 170 174 175 174 171 170 174 178 173 171 171 171 172 167 164 161 155 153 151 147 142 140 138 137 135 139 146 156 178 200 215 224 227 250 277 277 247 203 210 214 192 166 161 161 157 152 145 145 144 154 133 103 105 85 104 240 312 27 146 116 127 111 89 87 86 87 102 118 117 107 99
180 176 165 137 150 167 173 175 172 175 180 176 169 169 174 172 172 172 168 169 176 178 176 176 176 177 175 171 167 160 154 157 159 155 152 150 148 148 144 144 148 152 167 192 214 227 230 238 277 304 319 208 183 191 204 173 161 161 151 146 147 151 162 179 138 96 101 92 143 263 342 6 120 118 146 130 143 101 80 78 90 110 125 124 114
170 172 161 132 142 154 164 173 172 175 180 176 168 167 174 174 173 175 173 173 177 180 181 180 182 182 180 180 175 164 159 166 170 162 160 160 156 160 154 148 149 150 155 167 192 219 232 237 249 325 3 48 132 165 186 172 156 161 155 149 160 163 166 185 152 108 103 102 228 291 18 285 114 133 186 151 182 137 108 86 82 102 125 134 130
174 177 162 147 144 141 153 166 170 173 175 172 170 171 176 175 174 179 179 178 178 182 184 184 186 187 188 186 182 177 172 177 176 163 162 162 164 166 160 155 152 155 154 154 166 173 206 236 177 54 65 98 134 155 171 184 166 159 167 163 172 173 167 175 154 136 115 113 228 302 37 356 108 147 205 196 173 146 148 104 88 91 109 132 139
184 186 177 166 157 150 154 159 164 169 171 172 174 176 178 176 176 182 184 182 181 183 186 187 189 192 191 185 187 188 184 187 174 162 168 165 177 175 163 163 158 161 157 157 163 142 156 183 104 99 118 132 153 160 170 188 173 165 185 179 173 170 163 167 165 158 142 142 249 320 34 31 125 143 135 211 160 143 155 119 118 122 102 124 138
181 184 181 167 153 155 154 157 164 169 171 174 177 178 180 180 178 183 186 186 183 183 186 188 193 196 192 186 194 193 191 196 175 170 182 177 189 182 167 173 168 169 159 163 169 147 170 180 168 164 147 153 173 160 173 180 168 174 188 177 174 169 160 170 178 169 174 207 256 302 337 50 138 143 133 146 97 206 157 122 131 142 109 116 137
173 176 178 161 151 158 157 157 163 167 170 173 180 182 181 183 181 184 188 188 186 184 185 191 195 197 196 194 196 195 194 198 181 180 192 190 196 187 180 177 173 180 167 167 179 167 180 181 187 189 161 171 180 144 171 176 164 174 174 163 173 171 163 165 174 175 183 212 244 275 314 49 140 145 138 148 179 277 135 126 143 135 95 106 133
172 173 175 163 158 164 162 160 164 168 172 173 178 181 180 183 184 187 191 189 187 185 185 193 199 200 201 200 198 197 194 194 187 184 189 191 199 193 190 182 175 185 178 169 175 178 181 181 183 178 162 163 165 149 164 181 170 163 159 157 158 157 161 158 166 182 185 202 227 267 327 43 121 144 149 158 178 202 152 121 340 341 87 96 112
177 176 175 167 161 167 167 166 168 170 174 174 177 181 180 180 183 191 193 189 190 191 189 195 204 204 203 204 202 200 196 194 192 188 187 186 190 186 183 186 185 184 180 169 167 170 167 169 163 155 157 150 153 152 161 181 174 158 154 147 140 152 165 162 165 176 191 206 222 277 342 35 77 128 153 159 156 149 157 170 311 317 53 65 55
181 182 176 167 164 170 170 167 168 169 174 176 177 179 179 180 184 191 191 187 192 197 196 199 205 205 203 204 205 202 198 197 195 192 189 183 179 176 175 187 192 185 176 168 161 158 156 160 151 145 149 146 152 152 158 173 167 158 157 146 147 162 162 162 165 157 177 196 213 254 353 37 54 75 101 120 119 100 104 142 142 36 42 50 50
181 181 173 168 170 172 168 165 168 173 179 179 176 176 180 183 183 188 190 188 196 204 203 201 201 201 201 200 203 204 200 199 198 190 186 181 175 178 181 184 189 184 174 166 159 156 152 153 151 148 149 144 140 137 153 167 164 163 164 157 165 172 167 178 187 191 201 201 203 212 221 54 71 74 81 92 103 98 83 89 91 69 59 58 54
185 183 177 174 174 172 166 165 171 180 184 181 178 180 183 185 182 183 187 188 200 210 206 199 197 198 198 201 205 205 203 206 202 191 188 185 178 179 182 182 184 181 175 165 159 157 151 155 161 152 142 128 116 120 143 162 165 161 163 164 158 146 156 169 173 203 223 230 229 219 215 211 119 91 96 97 102 106 94 86 83 70 60 59 56
183 180 182 178 175 173 167 169 178 179 178 178 179 182 184 186 186 182 179 186 200 208 204 201 201 200 204 211 213 211 215 220 213 199 198 196 188 182 180 185 188 185 182 171 162 161 154 156 163 158 144 129 117 113 126 153 166 155 146 144 129 118 122 128 121 110 81 232 230 228 223 207 190 133 117 112 109 107 102 98 93 76 48 44 48
180 178 180 176 173 173 172 176 180 176 175 177 177 179 182 184 188 186 183 190 199 206 208 208 207 210 215 217 216 217 227 230 223 212 210 205 201 193 184 191 197 193 188 176 167 164 159 157 161 165 156 132 128 125 122 143 152 142 135 126 128 134 137 145 149 140 71 48 193 217 229 227 219 204 167 137 118 108 106 108 114 115 53 336 18
180 175 172 171 170 172 177 180 181 180 180 177 173 177 181 180 186 190 189 190 197 207 212 212 211 217 225 223 210 213 226 228 218 212 210 202 199 198 192 193 200 195 187 181 175 167 162 164 165 170 167 144 140 144 138 152 161 165 151 133 144 148 146 159 154 120 86 29 36 224 248 249 237 220 201 188 144 128 124 123 124 121 120 311 349
178 172 168 168 167 171 178 180 181 181 178 175 175 180 184 188 193 195 194 193 199 205 207 216 222 226 234 236 224 218 221 217 210 206 205 200 193 196 197 197 195 191 189 184 180 176 174 178 173 173 179 169 156 160 159 170 197 208 198 177 174 160 151 160 148 96 134 251 276 277 272 257 243 236 234 238 237 221 191 156 132 119 105 38 11
175 168 167 166 166 176 180 179 181 176 171 176 179 184 190 198 201 199 199 196 199 205 212 236 248 245 244 243 239 238 231 208 198 200 203 202 196 197 199 198 193 192 196 184 175 184 186 186 181 178 185 178 166 174 171 174 200 209 211 208 198 183 178 182 173 146 9 296 287 272 258 257 247 244 242 238 242 253 261 253 256 311 353 3 359
174 165 167 170 172 182 183 179 180 174 173 179 184 189 188 190 191 189 194 193 204 220 232 251 257 249 244 243 237 235 235 210 193 196 203 203 200 201 200 199 198 197 201 185 170 183 193 189 183 184 187 176 168 173 172 179 184 176 181 187 188 187 177 173 168 123 20 268 275 261 239 242 237 240 242 237 241 251 266 276 286 305 319 323 324
176 170 172 176 176 181 185 182 177 177 184 188 191 192 183 181 179 173 175 171 204 226 236 250 255 238 223 227 217 209 216 207 194 192 195 197 198 201 201 204 206 200 199 185 166 176 192 190 184 190 191 184 180 177 175 181 178 168 164 160 161 166 162 154 149 153 203 228 251 251 228 234 234 239 245 244 246 251 263 277 291 303 291 281 294
180 179 178 179 179 180 181 177 173 181 189 189 191 189 177 176 161 148 142 130 152 199 220 235 243 144 163 182 186 187 197 197 190 186 185 190 194 199 205 207 203 198 194 182 167 177 190 191 192 198 194 195 197 181 180 185 177 172 173 170 159 152 159 153 149 154 163 249 290 243 197 196 229 241 246 248 250 256 268 278 290 303 288 273 283
183 186 184 180 181 181 174 169 172 180 184 183 184 175 163 157 140 133 129 123 133 179 221 194 110 107 124 141 160 170 181 183 179 179 181 187 192 196 204 202 195 195 193 183 169 175 191 197 196 200 194 200 205 192 192 188 179 181 178 181 166 148 147 132 130 153 152 243 259 208 179 164 175 205 222 232 241 265 290 295 295 303 301 289 287
187 189 189 187 188 188 183 181 180 178 177 176 173 165 157 150 141 135 126 117 109 96 116 132 117 109 110 123 141 150 161 169 174 179 181 185 190 194 201 203 200 201 206 208 190 175 195 205 198 200 197 198 202 204 204 190 190 202 192 190 175 144 142 133 124 167 178 198 206 173 161 162 163 152 150 174 30 349 332 321 298 289 287 293 298
192 191 192 192 193 196 196 195 188 177 173 172 169 167 160 152 147 139 131 125 128 135 136 126 120 116 108 113 123 130 136 144 154 158 168 180 186 194 204 209 211 213 219 233 231 190 191 203 200 204 202 193 195 207 206 189 194 213 206 205 187 157 153 148 133 142 162 166 162 140 114 119 182 177 189 176 38 23 0 331 294 277 269 273 312
196 195 197 195 195 199 200 196 186 174 173 174 169 165 157 152 148 136 123 118 123 132 132 126 126 125 119 117 113 114 121 125 128 130 142 161 172 187 203 212 218 225 230 240 240 204 178 186 195 206 205 193 198 212 210 196 199 212 214 213 188 168 168 159 135 123 119 111 103 98 108 88 24 20 24 14 74 109 98 358 303 290 271 271 325
191 193 196 197 193 190 191 190 183 174 176 179 169 158 159 157 152 139 120 111 112 114 120 123 125 118 117 125 121 115 119 123 128 131 137 143 155 173 184 204 210 213 217 224 225 208 184 183 189 203 203 195 206 221 220 211 206 207 211 214 195 172 167 162 138 117 109 93 82 60 48 55 35 39 56 64 83 105 119 66 11 13 11 306 355
195 195 196 198 190 181 183 184 181 178 179 180 169 156 161 158 145 139 130 124 124 127 133 132 131 128 133 146 142 143 147 149 157 160 162 168 183 199 207 217 219 214 213 216 218 215 208 202 195 197 201 197 204 215 216 212 207 203 204 204 203 171 156 164 152 130 122 101 91 77 64 63 63 65 71 89 111 104 106 72 26 347 0 338 343
197 195 196 198 193 186 182 179 179 183 183 175 165 159 160 148 137 137 134 134 138 143 145 143 143 143 147 159 154 150 151 151 166 174 185 197 195 212 225 220 224 230 230 229 232 230 219 210 197 187 193 196 194 200 206 204 200 204 204 198 200 186 163 168 160 148 140 112 99 93 90 93 95 92 85 89 136 117 98 60 27 350 356 1 356
193 189 191 192 191 184 175 177 183 186 185 175 167 168 168 154 140 137 132 129 133 137 137 135 137 135 129 132 132 134 136 131 133 142 141 149 147 144 146 148 163 181 202 208 210 217 210 204 199 188 189 193 188 198 205 197 193 201 199 190 190 185 176 171 156 157 155 132 118 106 101 110 116 110 99 92 95 95 94 82 62 44 40 42 34
190 189 192 190 188 178 171 181 187 187 186 181 177 175 173 167 151 134 117 109 115 126 131 127 124 122 117 126 131 133 139 135 131 142 141 128 126 120 114 122 139 143 151 169 176 193 195 191 197 187 183 187 188 197 198 187 189 192 181 174 173 172 175 175 170 174 163 143 132 123 116 113 110 104 95 88 86 83 85 83 72 59 54 53 43
174 176 188 194 190 171 169 183 190 194 195 188 189 184 176 176 170 143 90 80 102 124 131 127 122 122 121 126 134 133 135 135 136 148 150 137 128 122 122 133 140 140 136 137 156 185 184 183 190 179 169 176 183 188 182 171 173 172 165 166 166 164 168 171 172 171 158 148 142 136 131 121 112 104 95 85 79 76 73 74 75 68 63 60 51
132 136 167 188 188 173 177 192 201 206 205 207 212 198 181 177 178 184 98 57 97 122 125 122 125 133 137 138 141 140 137 137 138 144 145 138 133 130 133 139 140 138 133 133 148 158 157 167 182 177 169 171 179 181 174 162 156 156 157 162 163 160 161 162 165 164 158 154 148 142 139 129 118 110 103 94 85 79 71 66 66 66 65 63 52